549  
ASUS41 KAKQ 211414  
RWRAKQ  
 
REGIONAL WEATHER ROUNDUP  
NATIONAL WEATHER SERVICE WAKEFIELD VA  
1000 AM EDT MON MAY 21 2018  
 
NOTE: "FAIR" INDICATES FEW OR NO CLOUDS BELOW 12,000 FEET WITH NO  
SIGNIFICANT WEATHER AND/OR S TO VISIBILITY
. * = DENOTES  
STATION MAY NOT REPORT PRECIPITATION (E.G., RAIN,SNOW,ETC.),
 
THUNDER OR FOG.  
 
VAZ042-051-052>054-056-211500-  
NORTHERN VIRGINIA  
 
CITY SKY/WX TMP DP RH WIND PRES REMARKS
 
WASH NATIONAL PTSUNNY 73 58 59 NE9 30.21R  
DULLES FAIR 72 60 66 VRB6 30.22R  
FORT BELVOIR NOT AVBL  
QUANTICO PTSUNNY 74 62 66 NE8 30.21R  
FREDERICKSBRG* FAIR 74 63 68 N7 30.19R  
STAFFORD* FAIR 74 64 70 E6 30.24R  
WARRENTON FAIR 74 56 53 E7 30.21S  
CULPEPER* FAIR 73 60 63 N6 30.22S  
MANASSAS* FAIR 74 60 61 VRB5 30.21S  
LEESBURG* FAIR 72 63 73 E5 30.23S  
WINCHESTER FAIR 68 57 68 E3 30.25R  
FRONT ROYAL* CLOUDY 70 63 78 NE3 30.22R  
LURAY* FAIR 73 63 68 N5 30.22R  

 
 
VAZ048-049-060>072-079>083-211500-  
CENTRAL AND SOUTH CENTRAL VIRGINIA  
 
CITY SKY/WX TMP DP RH WIND PRES REMARKS
 
RICHMOND CLOUDY 74 69 85 NE10 30.17R  
CHESTERFIELD* CLOUDY 74 69 85 NE9 30.17S  
PETERSBURG* CLOUDY 74 68 81 NE8 30.17R  
HANOVER FAIR 76 66 71 NE5 30.19R  
TAPPAHANNOCK* FAIR 74 66 74 NE9 30.19S  
QUINTON* CLOUDY 73 71 93 NE6 30.17R  
CHARLOTTSVILLE FAIR 74 63 68 NE9 30.21R  
GORDONSVILLE* FAIR 72 65 77 NE7 30.20S  
ORANGE* FAIR 72 63 73 N6 30.21S  
LOUISA* FAIR 73 64 73 NE6 30.24S  
BUMPASS* FAIR 73 64 72 E5 30.19S  
FARMVILLE* FAIR N/A N/A N/A N9 30.17S  
CREWE* FAIR 76 75 98 N7 30.17R  
FORT PICKETT* PTSUNNY 76 72 88 NE5 30.16R  
CHASE CITY* FAIR 75 74 99 NE3 30.16S  
CLARKSVILLE* PTSUNNY 75 72 88 N6 30.15S  
SOUTH HILL* CLOUDY 73 72 96 NE5 30.21S  
LAWRENCEVILLE* CLOUDY 76 71 85 CALM 30.15S  
EMPORIA* PTSUNNY 75 70 83 CALM 30.16S  

 
 
VAZ088>098-211500-  
SOUTHEAST VIRGINIA  
 
CITY SKY/WX TMP DP RH WIND PRES REMARKS
 
NORFOLK LGT RAIN 72 69 90 NE14 30.15R  
VIRGINIA BEACH CLOUDY 74 71 91 NE14 30.14R  
NORFOLK NAVAL CLOUDY 72 68 87 NE14 30.17R  
WEST POINT* N/A 74 66 76 NE9 30.19R  
SALUDA* CLOUDY 70 65 84 NE9 30.18R  
NEWPORT NEWS CLOUDY 72 66 81 NE15 30.16R  
LANGLEY AFB NOT AVBL  
FORT EUSTIS NOT AVBL  
WILLIAMSBURG* FAIR 77 72 83 CALM 30.17R  
HR EXEC AP* CLOUDY 80 72 76 VRB5 30.15R  
FRANKLIN* FAIR 77 72 83 CALM 30.14S  
US460-WAKEFLD CLOUDY 78 71 79 VRB3 30.15R HAZE  

 
 
VAZ020-022-025-037-045-211500-  
WEST CENTRAL AND SOUTHWEST VIRGINIA  
 
CITY SKY/WX TMP DP RH WIND PRES REMARKS
 
STAUNTON* FAIR 71 62 73 CALM 30.24S  
WAYNESBORO* FAIR 71 63 77 NE3 30.23S  
HOT SPRINGS VA FAIR 67 57 70 CALM 30.31S  
LYNCHBURG FAIR 75 63 66 NE13 30.20R  
DANVILLE FAIR 76 69 79 NE7 30.16S  
SOUTH BOSTON* FAIR 75 69 81 NE7 30.16S  
MARTINSVILLE FAIR 75 65 71 NE6 30.21S  
ROANOKE FAIR 75 65 70 CALM 30.22S  
BLACKSBURG PTSUNNY 74 65 74 SE3 30.27S  
DUBLIN* FAIR 74 68 81 CALM 30.25S  
MARION* CLOUDY 73 67 80 SW6 30.28S  
HILLSVILLE* FAIR 72 65 79 N3 30.25S  
RICHLANDS* FAIR 71 25 17 NW3 30.26S  
WISE* CLOUDY 75 64 69 CALM 30.27S  
ABINGDON* FAIR 74 68 83 W3 30.24S  

 
 
MDZ021>025-VAZ099-100-211500-  
SOUTHERN MARYLAND AND THE DELMARVA PENINSULA  
 
CITY SKY/WX TMP DP RH WIND PRES REMARKS
 
PATUXENT RIVER FAIR 76 60 57 E8 30.19R  
BAY BRIDGE APT FAIR 72 61 68 N7 30.21R  
LEONARDTOWN FAIR 72 59 64 E5 30.20S  
DOVER NOT AVBL  
GEORGETOWN FAIR 72 55 55 NE12 30.20R  
EASTON SUNNY 73 57 56 NE8 30.23S  
CAMBRIDGE SUNNY 72 57 60 NE6G12 30.19R  
SALISBURY FAIR 73 58 59 E10 30.18R  
TANGIER NOT AVBL  
OCEAN CITY FAIR 70 58 65 NE12G17 30.20R  
WALLOPS ISLAND FAIR 72 60 66 NE18 30.19R  
ACCOMACK* FAIR 72 58 61 E15 30.18R  

 
 
NCZ012>017-030>032-211500-  
NORTH CENTRAL AND EASTERN NORTH CAROLINA  
 
CITY SKY/WX TMP DP RH WIND PRES REMARKS
 
ROANOKE RAPIDS FAIR 77 72 83 CALM 30.15S  
RALEIGH CLOUDY 76 69 79 SW6 30.16S  
ELIZABETH CITY PTSUNNY 80 75 84 W3 30.14R  
AHOSKIE* CLOUDY 75 73 91 CALM 30.15R  
EDENTON* CLOUDY 77 72 85 W7 30.16R  
CURRITUCK* NOT AVBL  
KILL DEVIL HLS CLOUDY 76 71 84 CALM 30.14S  
MANTEO PTSUNNY 77 71 80 W6 30.15R  
CAPE HATTERAS FAIR 78 72 81 W7 30.16S  
TARBORO* NOT AVBL  
GOLDSBORO PTSUNNY 77 68 73 SW8 30.15S  
WASHINGTON CLOUDY 76 71 85 CALM 30.16S  
GREENVILLE CLOUDY 77 70 78 SW5 30.17S  
NEW BERN FAIR 76 72 87 NW7 30.17S  
WILMINGTON FAIR 79 68 69 SW8 30.18R  

 
 
VAZ048-211500-  
ELSEWHERE  
 
CITY SKY/WX TMP DP RH WIND PRES REMARKS
 
HARRISBURG PA PTSUNNY 68 55 63 VRB6 30.23R  
BALTIMORE FAIR 71 56 58 E10 30.21R  
ANNAPOLIS FAIR 72 59 63 NE7 30.21R  
ANDREWS AFB NOT AVBL  
PHILADELPHIA FAIR 70 51 51 N10G17 30.21R  
HENDERSON NC FAIR 74 66 77 CALM 30.16S  
GREENSBORO CLOUDY 75 66 73 NE6 30.17S  
ROCKY MOUNT FAIR 77 70 79 MISG 30.15S  

 
 
VAZ100-211500-  
MARINE  
 
STATION/POSITION TIME TEMP WIND PRES WAVE SWELL
 
AIR SEA DIR/SP/G HT/PER HT/PER  
(UTC) (F) (DEG/KT/KT) (MB) (FT/S) (FT/S)  
BRANDYWINE LGT 1342 67 40/ 9/ 10 1022.8R  
CAPE MAY NJ 1348 71 64 40/ 4/ 8 1021.7R  
LEWES DE 1342 66 64 30/ 4/ 7 1022.3R  
15NM E FENWICK I 1350 57 57 20/ 8/ 10 1022.3R 4/ 7 3/ 7  
OCEAN-CITY-INLET 1342 67 67 40/ 8/ 14 1022.8R  
WACHAPREAGUE VA 1348 67 75 50/ 14/ 18 1022.2R  
THOMAS POINT MD 1400 67 66 10/ 10/ 11 1023.8R  
GOOSES REEF MD 1400 69 80/ 8/ 8 1023.3 1/ 2  
COVE POINT MD 1348 70 60/ 7/ 8 1023.0R  
SOLOMONS ISLAND 1348 71 69 60/ 6/ 8 1022.1R  
BISHOPS HEAD MD 1348 72 73 50/ 8/ 12 1022.5R  
PINEY POINT MD 1348 110/ 8/ 9 N/A  
POTOMAC MD 1400 70 69 20/ 10/ 14 1021.7 1  
CAMBRIDGE MD 1342 71 72 1023.3R  
LEWISETTA VA 1348 70 72 80/ 9/ 11 1022.3R  
RAPPAHANNOCK LGT 1348 70/ 18/ 20 1022.5R  
STINGRAY PT 1400 70 71 100/ 16/ 17 1022.0 2/ 3  
YORK RVR RNG VA 1348 71 80/ 21/ 25 1021.9R  
YORKTOWN VA 1348 71 74 70/ 20/ 23 1021.3R  
DOMINION TERM VA 1348 77 80/ 5/ 8 1021.1R  
KIPTOPEKE VA 1342 70 60/ 14/ 19 N/A  
CAPE HENRY VA 1348 69 60/ 14/ 17 N/A  
WILLOUBY STN VA 1348 70/ 15/ 15 N/A  
S CRANEY ISL VA 1348 76 360/ 5/ 6 1020.5R  
CAPE HENRY BUOY 1400 66 N/A 2/ 8  
1ST LANDING BUOY 1400 69 69 80/ 14/ 17 1021.3 1/ 5  
64NM E OF VA BCH 1350 70 69 280/ 4/ 4 1021.1R 4/ 7 3/ 7  
DUCK PIER NC 1348 75 54 250/ 7/ 9 1020.2R  
44100 DUCK FRF 1345 68 N/A 3/ 9  
44056 DUCK FRF 1330 62 N/A 2/ 8  
OREGON INLET NC 1342 77 76 240/ 9/ 10 1020.5F  
HATTERAS NC 1348 76 75 260/ 9/ 12 1021.0R  
DIAMOND SHLS NC 1400 74 74 240/ 12/ 16 1021.9  
CAPE LOOKOUT NC 1400 240/ 9/ 12 1022.1R  

 
 
 
CLICK HERE TO GO TO PREVIOUS BULLETINS.

The Nexlab VA Page
The Nexlab NC Page
The Nexlab MD Page Main Text Page